This is the latest recevied weather packets stored in our database for station/object KC0AFB. If no packets are shown the sender has not sent any weather packets the latest 10 day(s).
| Time | Temp. | Humidity | Pressure | Rain* | Wind** | Luminosity | Snow |
|---|---|---|---|---|---|---|---|
| 1778023165 | 5.56° C | 48% | 1015.3 hPa | 0 mm | - | 124 W/m² | - |
| 1778022863 | 5.56° C | 49% | 1015.4 hPa | 0 mm | - | 139 W/m² | - |
| 1778022560 | 5.56° C | 49% | 1015.3 hPa | 0 mm | - | 162 W/m² | - |
| 1778022258 | 5° C | 48% | 1015.2 hPa | 0 mm | - | 170 W/m² | - |
| 1778021954 | 5.56° C | 48% | 1015.2 hPa | 0 mm | - | 138 W/m² | - |
| 1778021651 | 5° C | 48% | 1015.3 hPa | 0 mm | - | 148 W/m² | - |
| 1778021347 | 5° C | 47% | 1015 hPa | 0 mm | - | 150 W/m² | - |
| 1778021044 | 5.56° C | 48% | 1015 hPa | 0 mm | - | 153 W/m² | - |
| 1778020741 | 5.56° C | 48% | 1015.1 hPa | 0 mm | - | 186 W/m² | - |
| 1778020438 | 5.56° C | 49% | 1015 hPa | 0 mm | - | 195 W/m² | - |
| 1778020134 | 5.56° C | 48% | 1015 hPa | 0 mm | - | 193 W/m² | - |
| 1778019831 | 5.56° C | 49% | 1015.2 hPa | 0 mm | - | 159 W/m² | - |
| 1778019527 | 5.56° C | 50% | 1015.1 hPa | 0 mm | - | 174 W/m² | - |
| 1778019224 | 5.56° C | 50% | 1015.2 hPa | 0 mm | - | 182 W/m² | - |
| 1778018921 | 5.56° C | 50% | 1015 hPa | 0 mm | - | 165 W/m² | - |
| 1778018618 | 5° C | 50% | 1015 hPa | 0 mm | - | 152 W/m² | - |
| 1778018316 | 5.56° C | 49% | 1015.3 hPa | 0 mm | - | 191 W/m² | - |
| 1778018014 | 5.56° C | 50% | 1015.1 hPa | 0 mm | - | 215 W/m² | - |
| 1778017712 | 5.56° C | 49% | 1015 hPa | 0 mm | - | 200 W/m² | - |
| 1778017409 | 5.56° C | 48% | 1015 hPa | 0 mm | - | 210 W/m² | - |
| 1778017106 | 5.56° C | 47% | 1015 hPa | 0 mm | - | 217 W/m² | - |
| 1778016804 | 5.56° C | 49% | 1015.2 hPa | 0 mm | - | 235 W/m² | - |
| 1778016499 | 5.56° C | 48% | 1015.1 hPa | 0 mm | - | 248 W/m² | - |
| 1778016197 | 5.56° C | 49% | 1015.1 hPa | 0 mm | - | 233 W/m² | - |
| 1778015893 | 5.56° C | 49% | 1015.3 hPa | 0 mm | - | 223 W/m² | - |
* Rain latest hour (hover to see other rain measurements)
** Current wind speed in m/s (hover to see current wind gust speed)